IRIS

Last updated on Fri Sep 11 2026 00:03:31 GMT+0000 (Coordinated Universal Time)

1 39197U 13033A 26253.54916568 .00000672 00000+0 82816-4 0 9994 2 39197 97.9283 92.5547 0025371 42.0396 318.2760 14.86029701713054
UTC large
Height (km)
Speed (km/s)
/
Latitude / Longitude
Inclination (degrees)
Orbital Period (minutes)
Azimuth
Elevation
Range (km)
Doppler Factor

Next 0 passes for location: London (51.5072 / 0.1276)

No passes found over London.
IRIS